, AK

(GMT )
Anchorage

Weather History for PANC - May, 2014

Change the Weather History Date:

Saturday, May 17, 2014

  Actual Average Record
Temperature  
Mean Temperature 59 °F 48 °F  
Max Temperature 73 °F 57 °F 72 °F (2014)
Min Temperature 44 °F 40 °F 30 °F (1992)
Degree Days  
Heating Degree Days 6    
Month to date heating degree days 207  
Since 1 July heating degree days 8920  
Cooling Degree Days 0    
Month to date cooling degree days 0  
Year to date cooling degree days 0  
Growing Degree Days 8 (Base 50)    
Moisture  
Dew Point 38 °F    
Average Humidity 60    
Maximum Humidity 83    
Minimum Humidity 36    
Precipitation  
Precipitation 0.00 in 0.03 in 0.52 in (2013)
Month to date precipitation 0.17 0.36  
Year to date precipitation 2.93 2.88  
Snow  
Snow 0.00 in 0.00 in 0.30 in (2013)
Month to date snowfall 0.0 0.3  
Since 1 July snowfall 64.7 74.5  
Snow Depth 0.00 in    
Sea Level Pressure  
Sea Level Pressure 29.96 in    
Wind  
Wind Speed 4 mph (WSW)    
Max Wind Speed 8 mph    
Max Gust Speed -    
Visibility 10 miles    
Events      
T = Trace of Precipitation, MM = Missing Value Source: NWS Daily Summary

Daily Weather History Graph

Daily Weather History Graph

Search for Another Location

Airport or City:

Trip Planner

Search our weather history database for the weather conditions in past years. The results will help you decide how hot, cold, wet, or windy it might be!

Date:

Astronomy

May. 17, 2014 Rise Set
Actual Time 5:07 AM AKDT 10:46 PM AKDT
Civil Twilight 3:55 AM AKDT 12:00 AM AKDT
Nautical Twilight 2:28 AM AKDT Sun does not set
Astronomical Twilight Sun does not set Sun does not set
Moon 12:56 AM AKDT (5/17) 8:07 AM AKDT (5/17)
Length of Visible Light 20h 05m
Length of Day
17h 39m
Waning Gibbous, 88% of the Moon is Illuminated
May 17
Waning Gibbous
May 21
Last Quarter
May 28
New
Jun 5
First Quarter
Jun 12
Full

Hourly Weather History & Observations

Time (AKDT) Temp. Dew Point Humidity Pressure Visibility Wind Dir Wind Speed Gust Speed Precip Events Conditions
12:53 AM 53.1 °F 36.0 °F 52% 30.05 in 10.0 mi Variable 3.5 mph - N/A   Partly Cloudy
1:53 AM 55.0 °F 35.1 °F 47% 30.05 in 10.0 mi SSW 3.5 mph - N/A   Partly Cloudy
2:53 AM 51.1 °F 36.0 °F 56% 30.05 in 10.0 mi WSW 3.5 mph - N/A   Partly Cloudy
3:53 AM 46.9 °F 37.0 °F 68% 30.05 in 10.0 mi WSW 4.6 mph - N/A   Partly Cloudy
4:53 AM 46.0 °F 39.0 °F 76% 30.05 in 10.0 mi Calm Calm - N/A   Partly Cloudy
5:53 AM 45.0 °F 39.0 °F 80% 30.05 in 10.0 mi Calm Calm - N/A   Partly Cloudy
6:53 AM 48.9 °F 39.9 °F 71% 30.05 in 10.0 mi ESE 4.6 mph - N/A   Clear
7:53 AM 55.0 °F 37.9 °F 53% 30.03 in 10.0 mi East 3.5 mph - N/A   Clear
8:53 AM 60.1 °F 37.9 °F 44% 30.03 in 10.0 mi NE 4.6 mph - N/A   Partly Cloudy
9:53 AM 63.0 °F 35.1 °F 35% 30.02 in 10.0 mi Calm Calm - N/A   Partly Cloudy
10:53 AM 64.0 °F 39.9 °F 41% 30.01 in 10.0 mi WNW 3.5 mph - N/A   Scattered Clouds
11:53 AM 62.1 °F 37.9 °F 41% 29.99 in 10.0 mi WSW 4.6 mph - N/A   Mostly Cloudy
12:53 PM 64.0 °F 37.0 °F 37% 29.99 in 10.0 mi West 8.1 mph - N/A   Mostly Cloudy
1:53 PM 66.0 °F 41.0 °F 40% 29.96 in 10.0 mi West 6.9 mph - N/A   Mostly Cloudy
2:53 PM 70.0 °F 39.9 °F 33% 29.94 in 10.0 mi WNW 8.1 mph - N/A   Mostly Cloudy
3:53 PM 71.1 °F 39.9 °F 32% 29.91 in 10.0 mi SSW 3.5 mph - N/A   Mostly Cloudy
4:53 PM 70.0 °F 37.9 °F 31% 29.89 in 10.0 mi SW 6.9 mph - N/A   Mostly Cloudy
5:53 PM 70.0 °F 39.0 °F 32% 29.87 in 10.0 mi SW 6.9 mph - N/A   Mostly Cloudy
6:53 PM 70.0 °F 36.0 °F 29% 29.86 in 10.0 mi West 10.4 mph - N/A   Mostly Cloudy
7:53 PM 69.1 °F 36.0 °F 30% 29.84 in 10.0 mi West 9.2 mph - N/A   Mostly Cloudy
8:53 PM 64.0 °F 36.0 °F 35% 29.83 in 10.0 mi West 9.2 mph - N/A   Mostly Cloudy
9:53 PM 57.9 °F 37.9 °F 47% 29.84 in 10.0 mi WNW 8.1 mph - N/A   Mostly Cloudy
10:53 PM 57.9 °F 37.0 °F 46% 29.84 in 10.0 mi Calm Calm - N/A   Mostly Cloudy
11:53 PM 62.1 °F 33.1 °F 34% 29.83 in 10.0 mi North 9.2 mph - N/A   Mostly Cloudy